sat.trackr.live / text

‹ back to catalog

TIANHUI 6A

NORAD 55836 · 2023-030A

PAYLOAD ACTIVE UNKNOWN

§ Identity

Operator
Country
PRC
Launch date
2023-03-09
Launch site
TAISC
Launch vehicle
Mass (kg)
RCS (m²)

External: N2YO · Heavens-Above · Gunter

§ Orbital elements

Epoch: 2026-09-21T23:14:43.408608Z

Period
102.76 min
Inclination
99.0124°
Eccentricity
0.0003208
Mean motion
14.01326478 rev/d
Perigee alt
886.9 km
Apogee alt
891.5 km
Semi-major
7,267.3 km
B*
1.3853e-5
RAAN
272.0112°
Arg perigee
121.4217°
Mean anomaly
238.7262°
Rev number
18,095

§ Raw data

TIANHUI 6A1 55836U 23030A   26264.96855797 -.00000023  00000+0  13853-4 0  99902 55836  99.0124 272.0112 0003208 121.4217 238.7262 14.01326478180959

JSON: /api/v1/satellites/55836 · /tle

For live sub-satellite position, see the globe view (requires WebGL).

§ Visibility from observer

Set your observer location to see the next 7 days of passes ≥ 10°. The values pass through the URL so the page stays shareable.

No JS? Fill the form by hand. The geolocation button needs JavaScript.